Tracking 17855 objects as of 26-September-2016
HD Live streaming from Space Station
objects crossing your sky now

GLOBALSTAR M059

Track GLOBALSTAR M059 now!
10-day predictions
GLOBALSTAR M059 is classified as:


NORAD ID: 25944
Int'l Code: 1999-058B
Perigee: 1,688.0 km
Apogee: 1,688.8 km
Inclination: 52.0 °
Period: 120.0 minutes
Semi major axis: 8059 km
RCS: 2.6566 m2 (large)
Launch date: October 18, 1999
Source: Globalstar (GLOB)
Launch site: TYURATAM MISSILE AND SPACE COMPLEX (TTMTR)
Your satellite tracking list
Your tracking list is empty





NASA's NSSDC Master Catalog

Two Line Element Set (TLE):
1 25944U 99058B   16269.23561846 -.00000102  00000-0 -19864-3 0  9990
2 25944  52.0013 188.3164 0000463 102.4323  54.6377 11.99912543780209
Source of the keplerian elements: AFSPC

N2YO: 571